Regional Weather Roundup
Issued by NWS

Home | Current Version | Previous Version | Graphics & Text | Print | Product List | Glossary On
Versions: 1 2 3 4 5 6 7 8 9 10 11 12 13 14 15 16 17 18 19 20 21 22 23 24 25 26 27 28 29 30 31 32 33 34 35 36 37 38 39 40 41 42 43 44 45 46 47 48 49 50
000
ASUS43 KMKX 152011
RWRWI

WISCONSIN REGIONAL WEATHER ROUNDUP
NATIONAL WEATHER SERVICE MILWAUKEE/SULLIVAN WI
300 PM CDT TUE APR 15 2014

NOTE: "FAIR" INDICATES FEW OR NO CLOUDS BELOW 12,000 FEET WITH NO
SIGNIFICANT WEATHER AND/OR OBSTRUCTIONS TO VISIBILITY.

WIZ001-002-006>008-014>016-023>028-152100-
NORTHWEST WISCONSIN

CITY           SKY/WX    TMP DP  RH WIND       PRES   REMARKS
SUPERIOR ARPT  SUNNY     31   1  28 S3        30.08F
ASHLAND        SUNNY     28   5  37 VRB5      30.08F WCI  23
HAYWARD        SUNNY     29  -2  26 VRB6      30.05F WCI  23
SIREN          SUNNY     32   1  26 CALM      30.08S
RICE LAKE      NOT AVBL
LADYSMITH      SUNNY     32   5  32 N5        30.07F WCI  27
EAU CLAIRE     MOSUNNY   34   5  29 VRB7G18   30.08F WCI  28
MENOMONIE      CLEAR     33   6  32 W3        30.09F
NEW RICHMOND   SUNNY     32   3  29 CALM      30.09S
OSCEOLA        SUNNY     34   2  25 CALM      30.11F
$$

WIZ003>005-009-010-017-018-152100-
NORTH CENTRAL WISCONSIN

CITY           SKY/WX    TMP DP  RH WIND       PRES   REMARKS
WOODRUFF       MOSUNNY   34   9  36 NW3G18    30.01F
RHINELANDER    CLOUDY    26   5  40 NW8       30.02F WCI  18
EAGLE RIVER    PTSUNNY   26   9  48 W14       30.01S WCI  14
LAND O LAKES   CLOUDY    26  10  52 NW9       30.02S WCI  16
PHILLIPS       PTSUNNY   28   4  36 W7        30.03F WCI  20
TOMAHAWK       PTSUNNY   27   5  40 CALM      30.03F
MEDFORD        CLOUDY    28  11  49 W8G17     30.04F WCI  20
MERRILL        CLOUDY    29   7  38 CALM      30.04F
$$

WIZ029-030-035-036-043>047-152100-
CENTRAL WISCONSIN

CITY           SKY/WX    TMP DP  RH WIND       PRES   REMARKS
WAUSAU         PTSUNNY   27  12  53 W13       30.05S WCI  16
MOSINEE        PTSUNNY   28  12  50 W9G17     30.07F WCI  20
MARSHFIELD     CLOUDY    30  11  45 NW8       30.06F WCI  22
STEVENS POINT  CLOUDY    27   9  46 W7G16     30.08F WCI  20
WAUPACA        CLOUDY    32  12  43 W8        30.10F WCI  25
WAUTOMA        LGT SNOW  30  20  66 NW7       30.11F WCI  23
WISC RAPIDS    MIX PCPN  30  12  47 W8        30.10F WCI  22
CAMP DOUGLAS   PTSUNNY   32  14  47 W8        30.10F WCI  25
$$

WIZ011>013-019>022-031-037>040-048>050-152100-
NORTHEAST WISCONSIN

CITY           SKY/WX    TMP DP  RH WIND       PRES   REMARKS
ANTIGO         PTSUNNY   27  10  50 W12       30.03S WCI  16
STURGEON BAY   MOSUNNY   28  16  59 SW16      30.08F WCI  17
GREEN BAY      CLOUDY    31  18  58 W14G21    30.09F WCI  21
MANITOWOC      CLOUDY    32  17  54 NW12G21   30.11S WCI  23
APPLETON       PTSUNNY   28  16  59 NW9G16    30.10S WCI  20
CLINTONVILLE   PTSUNNY   32  14  47 W12       30.09S WCI  23
OSHKOSH        PTSUNNY   30  18  60 W10       30.11R WCI  21
$$

WIZ032>034-041-042-053>061-152100-
SOUTHWEST WISCONSIN

CITY           SKY/WX    TMP DP  RH WIND       PRES   REMARKS
LA CROSSE      SUNNY     36  11  35 VRB7      30.12F WCI  30
SPARTA         MOSUNNY   34  10  36 W5        30.11F WCI  30
VIROQUA        FAIR      32  14  47 W7        30.08F WCI  26
BOSCOBEL       PTSUNNY   37  12  35 VRB3      30.13F
PRAIRIE DU CHI MOSUNNY   35  12  39 W5        30.13F WCI  31
PLATTEVILLE    FAIR      35  18  48 W9G16     30.12F WCI  28
$$

WIZ056-057-062-063-064-067-068-152100-
SOUTH CENTRAL WISCONSIN

CITY           SKY/WX    TMP DP  RH WIND       PRES   REMARKS
BARABOO/DELLS  CLOUDY    32  17  54 NW5       30.11F WCI  27
LONE ROCK      CLOUDY    35  16  45 CALM      30.12F
WATERTOWN      CLOUDY    33  14  46 NW15      30.12S WCI  22
MADISON        PTSUNNY   34  14  43 NW10G17   30.13S WCI  26
MIDDLETON      MOCLDY    35  15  45 NW12      30.12F WCI  26
MONROE         CLOUDY    34  11  38 NW7G17    30.12S WCI  28
JANESVILLE     PTSUNNY   36  10  35 NW6       30.12F WCI  31
$$

WIZ051-052-058>065-066-070>072-152100-
SOUTHEAST WISCONSIN

CITY           SKY/WX    TMP DP  RH WIND       PRES   REMARKS
MILWAUKEE      PTSUNNY   32  16  51 CALM      30.14S
WAUKESHA       PTSUNNY  N/A N/A N/A NW9       30.13R
MILWAUKEE/TIMM CLOUDY    32  10  40 SW14G21   30.13S WCI  22
RACINE         CLOUDY    31  17  56 SE7       30.15S WCI  24
BURLINGTON     MOSUNNY   32  11  42 SW6       30.12F WCI  26
KENOSHA        PTSUNNY   34  16  47 VRB7      30.13S WCI  28
FOND DU LAC    PTSUNNY   33  18  53 W14G23    30.11S WCI  23
SHEBOYGAN      CLOUDY    31  16  54 W12       30.11F WCI  22
WEST BEND      CLOUDY    32   9  37 W17G23    30.11S WCI  21
JUNEAU         CLOUDY    32   8  37 W9G17     30.12S WCI  24
$$

LSZ147-162-152100-
LAKE SUPERIOR

STATION/POSITION TIME  TEMP    WIND        PRES    WAVE
                       AIR SEA DIR/SP/G            HT/PER
                 (UTC) (F)     (DEG/KT/KT) (MB)    (FT/S)
DEVILS ISLAND    2000   26     230/ 10/ 12 1020.0F
PORT WING        1940   26     280/  8/ 11 1019.3F
SAXON HARBOR     1940           40/  6/  7 1019.3F
$$

LMZ867-665-643>646-152100-
LAKE MICHIGAN

STATION/POSITION TIME  TEMP    WIND        PRES    WAVE
                       AIR SEA DIR/SP/G            HT/PER
                 (UTC) (F)     (DEG/KT/KT) (MB)    (FT/S)
NORTHPORT PIER   1900   27     230/  4/ 12 1018.6S
SISTER BAY       1923   35     320/  7/  8   N/A
KEWAUNEE LAKESHO 1900   29     230/  4/  8 1019.9R
SHEBOYGAN LAKESH 2000   31     300/ 13/ 17 1020.9F
PORT WASHINGTON  1900   34     330/  8/ 11 1020.7
MILWAUKEE LAKESH 1900   32     350/  5/  8   N/A
KENOSHA   LAKESH 2000   30     110/ 11/ 12   N/A
$$

TC  - TEMPERATURE IN CELSIUS
VSB - VISIBILITY IN STATUTE MILES
WCI - WIND CHILL INDEX
HX  - HEAT INDEX




USA.gov is the U.S. government's official web portal to all federal, state and local government web resources and services.